����������;��������(kWh)
2019-03-11 00:00;83,95
2019-03-11 00:15;85,3
2019-03-11 00:30;84,1
2019-03-11 00:45;83,1
2019-03-11 01:00;81,5
2019-03-11 01:15;82,5
2019-03-11 01:30;83,15
2019-03-11 01:45;84,45
2019-03-11 02:00;83
2019-03-11 02:15;82,3
2019-03-11 02:30;83,05
2019-03-11 02:45;81,3
2019-03-11 03:00;79,85
2019-03-11 03:15;84
2019-03-11 03:30;83,85
2019-03-11 03:45;85,45
2019-03-11 04:00;83,85
2019-03-11 04:15;84,5
2019-03-11 04:30;84,6
2019-03-11 04:45;84,1
2019-03-11 05:00;85,55
2019-03-11 05:15;86
2019-03-11 05:30;84,5
2019-03-11 05:45;81,75
2019-03-11 06:00;82,65
2019-03-11 06:15;84,4
2019-03-11 06:30;83,25
2019-03-11 06:45;81,05
2019-03-11 07:00;79,35
2019-03-11 07:15;79,55
2019-03-11 07:30;130,9
2019-03-11 07:45;103,5
2019-03-11 08:00;90,9
2019-03-11 08:15;97,3
2019-03-11 08:30;82,5
2019-03-11 08:45;90,9
2019-03-11 09:00;79,25
2019-03-11 09:15;90,25
2019-03-11 09:30;80,3
2019-03-11 09:45;87
2019-03-11 10:00;81,15
2019-03-11 10:15;90,4
2019-03-11 10:30;82,65
2019-03-11 10:45;94,2
2019-03-11 11:00;96,3
2019-03-11 11:15;87
2019-03-11 11:30;102
2019-03-11 11:45;87,6
2019-03-11 12:00;93,25
2019-03-11 12:15;81,8
2019-03-11 12:30;81,4
2019-03-11 12:45;90,7
2019-03-11 13:00;84,8
2019-03-11 13:15;88,95
2019-03-11 13:30;85,65
2019-03-11 13:45;86,85
2019-03-11 14:00;95,55
2019-03-11 14:15;85,85
2019-03-11 14:30;95,05
2019-03-11 14:45;87,3
2019-03-11 15:00;89,05
2019-03-11 15:15;96,2
2019-03-11 15:30;90,4
2019-03-11 15:45;100
2019-03-11 16:00;91
2019-03-11 16:15;88,3
2019-03-11 16:30;98
2019-03-11 16:45;91,65
2019-03-11 17:00;94,95
2019-03-11 17:15;85,9
2019-03-11 17:30;86,1
2019-03-11 17:45;94,7
2019-03-11 18:00;84,85
2019-03-11 18:15;89,2
2019-03-11 18:30;91,35
2019-03-11 18:45;89,4
2019-03-11 19:00;94,6
2019-03-11 19:15;94,2
2019-03-11 19:30;96,85
2019-03-11 19:45;95,5
2019-03-11 20:00;101,35
2019-03-11 20:15;96,7
2019-03-11 20:30;94,8
2019-03-11 20:45;99,75
2019-03-11 21:00;95,9
2019-03-11 21:15;95,75
2019-03-11 21:30;96,35
2019-03-11 21:45;90
2019-03-11 22:00;86,8
2019-03-11 22:15;89,25
2019-03-11 22:30;84,25
2019-03-11 22:45;82,3
2019-03-11 23:00;93,85
2019-03-11 23:15;88,9
2019-03-11 23:30;88,8
2019-03-11 23:45;92,5
2019-03-12 00:00;87,45
2019-03-12 00:15;87,05
2019-03-12 00:30;85,45
2019-03-12 00:45;88,95
2019-03-12 01:00;86,85
2019-03-12 01:15;84,95
2019-03-12 01:30;81,35
2019-03-12 01:45;82,75
2019-03-12 02:00;81,2
2019-03-12 02:15;82,2
2019-03-12 02:30;79,85
2019-03-12 02:45;80,05
2019-03-12 03:00;80,95
2019-03-12 03:15;81,2
2019-03-12 03:30;82,45
2019-03-12 03:45;79,45
2019-03-12 04:00;82,05
2019-03-12 04:15;81,4
2019-03-12 04:30;80,05
2019-03-12 04:45;81,15
2019-03-12 05:00;81,75
2019-03-12 05:15;79,35
2019-03-12 05:30;83,7
2019-03-12 05:45;81,65
2019-03-12 06:00;81,65
2019-03-12 06:15;83,8
2019-03-12 06:30;85,6
2019-03-12 06:45;83,9
2019-03-12 07:00;84,55
2019-03-12 07:15;94,25
2019-03-12 07:30;147,85
2019-03-12 07:45;101,85
2019-03-12 08:00;113,2
2019-03-12 08:15;106,9
2019-03-12 08:30;129,25
2019-03-12 08:45;140,25
2019-03-12 09:00;146,2
2019-03-12 09:15;152,4
2019-03-12 09:30;172,9
2019-03-12 09:45;199,2
2019-03-12 10:00;212,1
2019-03-12 10:15;209,5
2019-03-12 10:30;219,45
2019-03-12 10:45;208,8
2019-03-12 11:00;224,75
2019-03-12 11:15;224,7
2019-03-12 11:30;235,3
2019-03-12 11:45;237,9
2019-03-12 12:00;230,9
2019-03-12 12:15;231,85
2019-03-12 12:30;226,45
2019-03-12 12:45;233,05
2019-03-12 13:00;222,35
2019-03-12 13:15;220,2
2019-03-12 13:30;221,65
2019-03-12 13:45;210,35
2019-03-12 14:00;210,7
2019-03-12 14:15;203,4
2019-03-12 14:30;201,45
2019-03-12 14:45;196,95
2019-03-12 15:00;203,5
2019-03-12 15:15;215,8
2019-03-12 15:30;210,85
2019-03-12 15:45;200
2019-03-12 16:00;209,5
2019-03-12 16:15;197,7
2019-03-12 16:30;203,9
2019-03-12 16:45;187,35
2019-03-12 17:00;191,4
2019-03-12 17:15;180,9
2019-03-12 17:30;181,3
2019-03-12 17:45;181,2
2019-03-12 18:00;172,1
2019-03-12 18:15;170,95
2019-03-12 18:30;172,7
2019-03-12 18:45;168,5
2019-03-12 19:00;165,45
2019-03-12 19:15;159,2
2019-03-12 19:30;160,2
2019-03-12 19:45;160,85
2019-03-12 20:00;155,5
2019-03-12 20:15;143,3
2019-03-12 20:30;138,8
2019-03-12 20:45;141,5
2019-03-12 21:00;141,35
2019-03-12 21:15;134,2
2019-03-12 21:30;133,5
2019-03-12 21:45;126,35
2019-03-12 22:00;127,25
2019-03-12 22:15;124,95
2019-03-12 22:30;123,9
2019-03-12 22:45;123
2019-03-12 23:00;125,85
2019-03-12 23:15;117,45
2019-03-12 23:30;115,7
2019-03-12 23:45;118,8
2019-03-13 00:00;110,85
2019-03-13 00:15;110,1
2019-03-13 00:30;109,8
2019-03-13 00:45;108,5
2019-03-13 01:00;108,15
2019-03-13 01:15;108,65
2019-03-13 01:30;111,05
2019-03-13 01:45;113,4
2019-03-13 02:00;109,8
2019-03-13 02:15;108,95
2019-03-13 02:30;108,2
2019-03-13 02:45;108,55
2019-03-13 03:00;110,05
2019-03-13 03:15;107,7
2019-03-13 03:30;107,4
2019-03-13 03:45;107,15
2019-03-13 04:00;108,05
2019-03-13 04:15;105,75
2019-03-13 04:30;109,9
2019-03-13 04:45;107,85
2019-03-13 05:00;109,4
2019-03-13 05:15;109,65
2019-03-13 05:30;108,9
2019-03-13 05:45;106,45
2019-03-13 06:00;106,3
2019-03-13 06:15;107,8
2019-03-13 06:30;111,5
2019-03-13 06:45;111,05
2019-03-13 07:00;112,35
2019-03-13 07:15;111,65
2019-03-13 07:30;165,1
2019-03-13 07:45;120,5
2019-03-13 08:00;132,6
2019-03-13 08:15;131,55
2019-03-13 08:30;156,3
2019-03-13 08:45;172,8
2019-03-13 09:00;208,7
2019-03-13 09:15;212,75
2019-03-13 09:30;228,15
2019-03-13 09:45;230,55
2019-03-13 10:00;235,4
2019-03-13 10:15;258,2
2019-03-13 10:30;265,3
2019-03-13 10:45;277,65
2019-03-13 11:00;281,9
2019-03-13 11:15;282,3
2019-03-13 11:30;294,75
2019-03-13 11:45;294,25
2019-03-13 12:00;284,8
2019-03-13 12:15;304,4
2019-03-13 12:30;298,6
2019-03-13 12:45;305,4
2019-03-13 13:00;305,7
2019-03-13 13:15;290,75
2019-03-13 13:30;294,15
2019-03-13 13:45;280,4
2019-03-13 14:00;283,95
2019-03-13 14:15;288,55
2019-03-13 14:30;280,3
2019-03-13 14:45;273,3
2019-03-13 15:00;267,7
2019-03-13 15:15;263,75
2019-03-13 15:30;247
2019-03-13 15:45;247,2
2019-03-13 16:00;233,05
2019-03-13 16:15;235,2
2019-03-13 16:30;223,25
2019-03-13 16:45;224,95
2019-03-13 17:00;220,35
2019-03-13 17:15;218,05
2019-03-13 17:30;215,65
2019-03-13 17:45;218,85
2019-03-13 18:00;209
2019-03-13 18:15;207,85
2019-03-13 18:30;205,35
2019-03-13 18:45;206,65
2019-03-13 19:00;199,5
2019-03-13 19:15;199,55
2019-03-13 19:30;189
2019-03-13 19:45;182,5
2019-03-13 20:00;179,5
2019-03-13 20:15;167,2
2019-03-13 20:30;168,75
2019-03-13 20:45;164,2
2019-03-13 21:00;166,35
2019-03-13 21:15;155,3
2019-03-13 21:30;157,5
2019-03-13 21:45;152,7
2019-03-13 22:00;141,7
2019-03-13 22:15;139,3
2019-03-13 22:30;134,3
2019-03-13 22:45;132,65
2019-03-13 23:00;137,75
2019-03-13 23:15;133,85
2019-03-13 23:30;132,3
2019-03-13 23:45;132,6
2019-03-14 00:00;123,2
2019-03-14 00:15;123,9
2019-03-14 00:30;123,45
2019-03-14 00:45;120,5
2019-03-14 01:00;117,25
2019-03-14 01:15;118,85
2019-03-14 01:30;118,8
2019-03-14 01:45;117,45
2019-03-14 02:00;114,8
2019-03-14 02:15;115,5
2019-03-14 02:30;113,85
2019-03-14 02:45;112,3
2019-03-14 03:00;112
2019-03-14 03:15;113,4
2019-03-14 03:30;112,2
2019-03-14 03:45;110,8
2019-03-14 04:00;112,15
2019-03-14 04:15;110,95
2019-03-14 04:30;111,2
2019-03-14 04:45;108,9
2019-03-14 05:00;112,3
2019-03-14 05:15;110,9
2019-03-14 05:30;111
2019-03-14 05:45;113,15
2019-03-14 06:00;111,55
2019-03-14 06:15;110,6
2019-03-14 06:30;111,2
2019-03-14 06:45;111,65
2019-03-14 07:00;116,5
2019-03-14 07:15;113,95
2019-03-14 07:30;166,6
2019-03-14 07:45;137,2
2019-03-14 08:00;138,9
2019-03-14 08:15;139,6
2019-03-14 08:30;158,5
2019-03-14 08:45;175,4
2019-03-14 09:00;193,15
2019-03-14 09:15;184,4
2019-03-14 09:30;193,95
2019-03-14 09:45;191,25
2019-03-14 10:00;210,15
2019-03-14 10:15;205,65
2019-03-14 10:30;141,9
2019-03-14 10:45;3,4
2019-03-14 11:00;202,95
2019-03-14 11:15;209,3
2019-03-14 11:30;215,5
2019-03-14 11:45;221,15
2019-03-14 12:00;209,35
2019-03-14 12:15;213,15
2019-03-14 12:30;205,5
2019-03-14 12:45;209,85
2019-03-14 13:00;204,55
2019-03-14 13:15;214,3
2019-03-14 13:30;204,45
2019-03-14 13:45;206
2019-03-14 14:00;201,75
2019-03-14 14:15;193,8
2019-03-14 14:30;191,9
2019-03-14 14:45;192,35
2019-03-14 15:00;188,2
2019-03-14 15:15;183,4
2019-03-14 15:30;178,3
2019-03-14 15:45;169,7
2019-03-14 16:00;173
2019-03-14 16:15;167,2
2019-03-14 16:30;170,15
2019-03-14 16:45;159,65
2019-03-14 17:00;169,55
2019-03-14 17:15;157,15
2019-03-14 17:30;178,4
2019-03-14 17:45;179,6
2019-03-14 18:00;182,6
2019-03-14 18:15;164,85
2019-03-14 18:30;152,8
2019-03-14 18:45;150,4
2019-03-14 19:00;149,5
2019-03-14 19:15;152,85
2019-03-14 19:30;144,5
2019-03-14 19:45;143,9
2019-03-14 20:00;140,1
2019-03-14 20:15;135,15
2019-03-14 20:30;134,55
2019-03-14 20:45;130,05
2019-03-14 21:00;131,35
2019-03-14 21:15;125,75
2019-03-14 21:30;126,5
2019-03-14 21:45;120,9
2019-03-14 22:00;114,85
2019-03-14 22:15;115
2019-03-14 22:30;112
2019-03-14 22:45;112,15
2019-03-14 23:00;121,35
2019-03-14 23:15;118,05
2019-03-14 23:30;117,85
2019-03-14 23:45;113,3
2019-03-15 00:00;103,7
2019-03-15 00:15;100,05
2019-03-15 00:30;99,7
2019-03-15 00:45;99,65
2019-03-15 01:00;115,6
2019-03-15 01:15;128,2
2019-03-15 01:30;121,5
2019-03-15 01:45;114,15
2019-03-15 02:00;115,45
2019-03-15 02:15;103,75
2019-03-15 02:30;103,05
2019-03-15 02:45;103,6
2019-03-15 03:00;105,4
2019-03-15 03:15;120,6
2019-03-15 03:30;129,05
2019-03-15 03:45;123,05
2019-03-15 04:00;118,85
2019-03-15 04:15;107,55
2019-03-15 04:30;101,9
2019-03-15 04:45;104,9
2019-03-15 05:00;102,4
2019-03-15 05:15;100,6
2019-03-15 05:30;100,1
2019-03-15 05:45;101
2019-03-15 06:00;99,4
2019-03-15 06:15;100
2019-03-15 06:30;98,4
2019-03-15 06:45;99,4
2019-03-15 07:00;100,85
2019-03-15 07:15;104,65
2019-03-15 07:30;150,45
2019-03-15 07:45;114,2
2019-03-15 08:00;122,05
2019-03-15 08:15;129,5
2019-03-15 08:30;137,45
2019-03-15 08:45;147,75
2019-03-15 09:00;164,6
2019-03-15 09:15;180,9
2019-03-15 09:30;193,2
2019-03-15 09:45;187,95
2019-03-15 10:00;195,85
2019-03-15 10:15;195,4
2019-03-15 10:30;211,75
2019-03-15 10:45;214,95
2019-03-15 11:00;229,25
2019-03-15 11:15;230,3
2019-03-15 11:30;242,65
2019-03-15 11:45;256,35
2019-03-15 12:00;271,45
2019-03-15 12:15;271,45
2019-03-15 12:30;278,25
2019-03-15 12:45;262,4
2019-03-15 13:00;261,5
2019-03-15 13:15;262,35
2019-03-15 13:30;266,35
2019-03-15 13:45;260,05
2019-03-15 14:00;249,85
2019-03-15 14:15;167,85
2019-03-15 14:30;226,45
2019-03-15 14:45;248,5
2019-03-15 15:00;221,3
2019-03-15 15:15;221,55
2019-03-15 15:30;215,15
2019-03-15 15:45;214,2
2019-03-15 16:00;205,05
2019-03-15 16:15;201,5
2019-03-15 16:30;199,95
2019-03-15 16:45;196,55
2019-03-15 17:00;190,2
2019-03-15 17:15;178,85
2019-03-15 17:30;178,55
2019-03-15 17:45;178,55
2019-03-15 18:00;177,45
2019-03-15 18:15;177,05
2019-03-15 18:30;178,55
2019-03-15 18:45;174,85
2019-03-15 19:00;163,5
2019-03-15 19:15;163,65
2019-03-15 19:30;153,5
2019-03-15 19:45;150,45
2019-03-15 20:00;144,2
2019-03-15 20:15;141,05
2019-03-15 20:30;138,85
2019-03-15 20:45;135,25
2019-03-15 21:00;129,4
2019-03-15 21:15;126,2
2019-03-15 21:30;128,9
2019-03-15 21:45;120,8
2019-03-15 22:00;115,25
2019-03-15 22:15;114,1
2019-03-15 22:30;108,05
2019-03-15 22:45;111,4
2019-03-15 23:00;114,55
2019-03-15 23:15;112,35
2019-03-15 23:30;110,15
2019-03-15 23:45;111,8
2019-03-16 00:00;102,9
2019-03-16 00:15;102,2
2019-03-16 00:30;101,15
2019-03-16 00:45;102,6
2019-03-16 01:00;100,95
2019-03-16 01:15;96,2
2019-03-16 01:30;94,5
2019-03-16 01:45;97,8
2019-03-16 02:00;98,4
2019-03-16 02:15;94,8
2019-03-16 02:30;96,3
2019-03-16 02:45;96,1
2019-03-16 03:00;99,1
2019-03-16 03:15;96,3
2019-03-16 03:30;96,2
2019-03-16 03:45;96,1
2019-03-16 04:00;95,2
2019-03-16 04:15;95,15
2019-03-16 04:30;95,9
2019-03-16 04:45;96,95
2019-03-16 05:00;93,9
2019-03-16 05:15;95
2019-03-16 05:30;96,15
2019-03-16 05:45;91,95
2019-03-16 06:00;93,6
2019-03-16 06:15;91,3
2019-03-16 06:30;90,35
2019-03-16 06:45;86,95
2019-03-16 07:00;84,7
2019-03-16 07:15;86,2
2019-03-16 07:30;84,25
2019-03-16 07:45;83,8
2019-03-16 08:00;83,95
2019-03-16 08:15;86,5
2019-03-16 08:30;86,1
2019-03-16 08:45;84,7
2019-03-16 09:00;81,55
2019-03-16 09:15;83
2019-03-16 09:30;88,3
2019-03-16 09:45;95,45
2019-03-16 10:00;89,5
2019-03-16 10:15;86,1
2019-03-16 10:30;82,4
2019-03-16 10:45;82,8
2019-03-16 11:00;84,2
2019-03-16 11:15;86,05
2019-03-16 11:30;86,6
2019-03-16 11:45;83,85
2019-03-16 12:00;87,75
2019-03-16 12:15;93,75
2019-03-16 12:30;93,6
2019-03-16 12:45;92,9
2019-03-16 13:00;89,1
2019-03-16 13:15;90,2
2019-03-16 13:30;89,65
2019-03-16 13:45;90,7
2019-03-16 14:00;96,75
2019-03-16 14:15;93,4
2019-03-16 14:30;94,5
2019-03-16 14:45;89,75
2019-03-16 15:00;89,05
2019-03-16 15:15;88,9
2019-03-16 15:30;89,7
2019-03-16 15:45;91,1
2019-03-16 16:00;88,4
2019-03-16 16:15;89,85
2019-03-16 16:30;88
2019-03-16 16:45;92,85
2019-03-16 17:00;91,1
2019-03-16 17:15;88,5
2019-03-16 17:30;87,8
2019-03-16 17:45;91,9
2019-03-16 18:00;92,65
2019-03-16 18:15;96,85
2019-03-16 18:30;98,1
2019-03-16 18:45;97,65
2019-03-16 19:00;102,55
2019-03-16 19:15;103,15
2019-03-16 19:30;105,65
2019-03-16 19:45;107,95
2019-03-16 20:00;107,15
2019-03-16 20:15;105,5
2019-03-16 20:30;104,4
2019-03-16 20:45;101,15
2019-03-16 21:00;104,55
2019-03-16 21:15;99,8
2019-03-16 21:30;101,4
2019-03-16 21:45;98
2019-03-16 22:00;99,15
2019-03-16 22:15;98,85
2019-03-16 22:30;98,35
2019-03-16 22:45;98,1
2019-03-16 23:00;103,85
2019-03-16 23:15;102,4
2019-03-16 23:30;101,35
2019-03-16 23:45;104,3
2019-03-17 00:00;94,5
2019-03-17 00:15;96,7
2019-03-17 00:30;94,25
2019-03-17 00:45;95,3
2019-03-17 01:00;92,4
2019-03-17 01:15;89
2019-03-17 01:30;89,7
2019-03-17 01:45;90,05
2019-03-17 02:00;91,35
2019-03-17 02:15;90,55
2019-03-17 02:30;89,95
2019-03-17 02:45;89,8
2019-03-17 03:00;91,7
2019-03-17 03:15;90,6
2019-03-17 03:30;92,4
2019-03-17 03:45;91,7
2019-03-17 04:00;91,7
2019-03-17 04:15;90,5
2019-03-17 04:30;89,55
2019-03-17 04:45;90,45
2019-03-17 05:00;89,9
2019-03-17 05:15;87,2
2019-03-17 05:30;88
2019-03-17 05:45;88,65
2019-03-17 06:00;90,95
2019-03-17 06:15;87,35
2019-03-17 06:30;84,6
2019-03-17 06:45;82,65
2019-03-17 07:00;82,05
2019-03-17 07:15;81,75
2019-03-17 07:30;81,1
2019-03-17 07:45;81,2
2019-03-17 08:00;80,8
2019-03-17 08:15;82,2
2019-03-17 08:30;81,4
2019-03-17 08:45;78,95
2019-03-17 09:00;76,75
2019-03-17 09:15;78,4
2019-03-17 09:30;79,7
2019-03-17 09:45;77,7
2019-03-17 10:00;77,2
2019-03-17 10:15;75,3
2019-03-17 10:30;76,1
2019-03-17 10:45;77,7
2019-03-17 11:00;79,7
2019-03-17 11:15;82,05
2019-03-17 11:30;87,7
2019-03-17 11:45;81,3
2019-03-17 12:00;86,05
2019-03-17 12:15;83,45
2019-03-17 12:30;83,65
2019-03-17 12:45;84,1
2019-03-17 13:00;85,7
2019-03-17 13:15;83,95
2019-03-17 13:30;84,35
2019-03-17 13:45;85,3
2019-03-17 14:00;88,45
2019-03-17 14:15;91,45
2019-03-17 14:30;92,05
2019-03-17 14:45;94,35
2019-03-17 15:00;91,95
2019-03-17 15:15;91,65
2019-03-17 15:30;90,9
2019-03-17 15:45;89,1
2019-03-17 16:00;89,5
2019-03-17 16:15;91,5
2019-03-17 16:30;89,9
2019-03-17 16:45;91,1
2019-03-17 17:00;91,6
2019-03-17 17:15;89,2
2019-03-17 17:30;85,9
2019-03-17 17:45;89,65
2019-03-17 18:00;91,9
2019-03-17 18:15;91,9
2019-03-17 18:30;92,85
2019-03-17 18:45;97,2
2019-03-17 19:00;97,3
2019-03-17 19:15;103,45
2019-03-17 19:30;106,3
2019-03-17 19:45;103,45
2019-03-17 20:00;100,6
2019-03-17 20:15;97,7
2019-03-17 20:30;100,8
2019-03-17 20:45;103,1
2019-03-17 21:00;102,2
2019-03-17 21:15;99,2
2019-03-17 21:30;99,65
2019-03-17 21:45;97,1
2019-03-17 22:00;96,2
2019-03-17 22:15;100,35
2019-03-17 22:30;96
2019-03-17 22:45;94,95
2019-03-17 23:00;102
2019-03-17 23:15;97,45
2019-03-17 23:30;101,15
2019-03-17 23:45;104,35

